Location: Boissi�res
(45.2500°N, 2.3667°E)
Time: 15:00:30
(UTC+00:00)

Cosmos 1500 - Pass Details

Date: 03 March 2021
Orbit: 499 x 517 km, 82.5° (Epoch: 11 April)

Event Time Altitude Azimuth Distance (km) Brightness Sun altitude
Rises 18:46:19 0° 181° (S) 2,579 6.7 -12.4°
Reaches altitude 10° 18:48:25 10° 178° (S) 1,700 5.8 -12.7°
Maximum altitude 18:52:07 66° 96° (E) 548 3.0 -13.4°
Drops below altitude 10° 18:55:50 10° 14° (NNE) 1,714 5.7 -14.0°
Sets 18:57:58 0° 12° (NNE) 2,604 6.7 -14.4°
